Regional Weather Roundup
Issued by NWS Midland/Odessa, TX

Current Version | Previous Version | Text Only | Print | Product List | Glossary On
Versions: 1 2 3 4 5 6 7 8 9 10 11 12 13 14 15 16 17 18 19 20 21 22 23 24 25 26 27 28 29 30 31 32 33 34 35 36 37 38 39 40 41 42 43 44 45 46 47 48 49 50
000
ASUS44 KMAF 170610
RWRMAF
MIDLAND AREA WEATHER ROUNDUP
NATIONAL WEATHER SERVICE MIDLAND TX
100 AM CDT WED SEP 17 2014

...IN SOUTHWEST TEXAS AND SOUTHEAST NEW MEXICO...

CITY           SKY/WX    TMP DP  RH WIND       PRES   REMARKS
ALPINE         CLOUDY    68  60  77 CALM      30.20F
ANDREWS        FAIR      69  68  98 NE3       30.13S
ARTESIA        NOT AVBL
BIG SPRING     CLOUDY    74  69  84 N3        30.11F
CARLSBAD       MOCLDY    70  70 100 NW5       30.11F
DRYDEN           N/A     77  69  76 NE3       30.03S
FORT STOCKTON  MOCLDY    70  65  84 SE6       30.08F
GUAD PASS      CLOUDY    64  61  90 NE28      30.21F
HOBBS          CLOUDY    66  66 100 CALM      30.15F
MARFA          CLOUDY    64  59  82 NE6       30.19F
MIDLAND AIRPK  NOT AVBL
MIDLAND INTL   CLOUDY    73  66  78 E7        30.09F
ODESSA         MOCLDY    71  65  81 E6        30.11F
PECOS          MOCLDY    72  64  75 E5        30.06S
PRESIDIO       FAIR      78  63  60 NE10      30.03S
SEMINOLE       MOCLDY    67  65  94 CALM      30.13F
SNYDER         CLOUDY    71  69  92 E5        30.09F
WINK           MOCLDY    73  68  84 E8        30.06F
$$
...OTHER STATIONS IN TEXAS...

CITY           SKY/WX    TMP DP  RH WIND       PRES   REMARKS
ABILENE        CLOUDY    78  66  66 SE5       30.06F
AMARILLO       MOCLDY    65  62  90 SW6       30.11F
AUSTIN         MOCLDY    75  73  93 S3        29.99F
BROWNSVILLE    PTCLDY    78  76  93 SE3       29.98S
CORPUS CHRISTI MOCLDY    79  76  90 S7        29.96S
DALLAS FTW     MOCLDY    80  69  69 S6        29.99F
DEL RIO        LGT RAIN  80  73  79 E7        29.97F
EL PASO        CLOUDY    69  64  84 N14       30.09F
HOUSTON INT    CLOUDY    77  75  93 SE6       29.99F
LUBBOCK        LGT RAIN  69  67  93 SW3       30.12S FOG
SAN ANGELO     CLOUDY    78  67  68 SE13      30.05S
SAN ANTONIO    CLOUDY    79  74  84 E8        30.00F
WACO           PTCLDY    75  71  87 SW6       30.00F
WICHITA FALLS  NOT AVBL
$$
...OTHER LOCATIONS IN NEW MEXICO...

CITY           SKY/WX    TMP DP  RH WIND       PRES   REMARKS
ALAMAGORDO     CLOUDY    64  64 100 CALM      30.14F
ALBUQUERQUE    CLOUDY    63  54  72 SE5       30.23F
CANNON AFB     CLOUDY    64  64 100 W7        30.16F
CLOVIS           N/A     64  61  88 W8        30.17F
HOLLOMAN AFB   CLOUDY    66  66 100 CALM      30.12F
ROSWELL        CLOUDY    67  65  93 CALM      30.13F
RUIDOSO        CLOUDY    55  55 100 CALM      30.31F FOG
SANTA FE       CLOUDY    59  52  77 SW6       30.26F
TRUTH OR CONSE CLOUDY    64  62  93 N5        30.17F
TUCUMCARI      CLOUDY    66  60  81 SW8       30.11F
$$



USA.gov is the U.S. government's official web portal to all federal, state and local government web resources and services.